[[{"header":{"parameterUnit":"m.s-1","parameterCategory":1,"la1":30.2991,"la2":30.254,"lo1":-89.0895,"lo2":-89.0444,"dy":0.0017,"dx":0.0017,"nx":28,"ny":28,"refTime":"2023-08-21T09:00:00:Z","depth":0,"parameterNumber":2,"parameterNumberName":"U-component_of_WINDS"},"data":[0,0,0,0,0,0,0,0,0,0,0,0,0,0,0,0,0,0,0,0,0,0,0,0,0,0,0,0,0,0,0,0,0,0,0,0,0,0,0,0,0,0,0,0,0,0,0,0,0,0,0,0,0,0,0,0,0,0,-3.2067,-3.2067,0,-3.2047,-3.2046,-3.2046,-3.193,-3.1928,-3.1925,-3.1922,-3.1903,-3.1905,-3.1907,0,0,0,0,0,0,0,0,0,0,0,0,0,-3.2008,-3.201,-3.2067,-3.2067,-3.2067,-3.2047,-3.2046,-3.2046,-3.1931,-3.1928,-3.1924,-3.1921,-3.1902,-3.1905,-3.1907,0,0,0,0,0,0,0,0,0,0,0,0,0,-3.2015,-3.201,-3.2067,-3.2007,-3.2001,-3.2047,-3.2046,-3.2046,-3.1932,-3.1927,-3.1923,-3.1919,-3.1902,-3.1905,-3.1908,-3.201,0,0,-3.1917,-3.1919,0,0,0,0,0,0,0,0,-3.2015,-3.2018,-3.2016,-3.2011,-3.2005,-3.1987,-3.2018,-3.2034,-3.1933,-3.1958,-3.1922,-3.1917,-3.1934,-3.1935,-3.194,-3.201,-3.2009,-3.1917,-3.1919,-3.1921,-3.1922,0,0,0,0,0,0,0,-3.2015,-3.2018,-3.2059,-3.2016,-3.2009,-3.1981,-3.1977,-3.2021,-3.197,-3.1956,-3.1947,-3.1946,-3.1931,-3.1937,-3.1939,-3.2008,-3.1917,-3.192,-3.1922,-3.1923,-3.216,-3.2164,0,0,0,0,0,0,-3.2022,-3.2018,-3.206,-3.2059,-3.2,-3.1986,-3.1981,-3.1997,-3.1969,-3.1961,-3.195,-3.1941,-3.1934,-3.1935,-3.1938,-3.2054,-3.1921,-3.1924,-3.1925,-3.2155,-3.2161,-3.2166,0,0,0,0,0,0,-3.2022,-3.2027,-3.2061,-3.2036,-3.2038,-3.1991,-3.2009,-3.1999,-3.2005,-3.1965,-3.1955,-3.1966,-3.1931,-3.1933,-3.1993,-3.2052,-3.1925,-3.1928,-3.215,-3.2157,-3.2163,-3.2291,0,0,0,0,0,0,-3.202,-3.2028,-3.2066,-3.2038,-3.204,-3.2116,-3.2013,-3.2001,-3.2011,-3.1999,-3.1977,-3.197,-3.1928,-3.1989,-3.1996,-3.2054,-3.193,-3.2145,-3.2153,-3.2161,-3.2281,-3.2301,-3.2318,0,0,0,0,0,-3.2019,-3.2104,-3.2069,-3.2074,-3.2087,-3.212,-3.2121,-3.207,-3.2016,-3.2054,-3.2028,-3.197,-3.2045,-3.1996,-3.2003,-3.2063,-3.2141,-3.2151,-3.216,-3.2272,-3.2297,-3.2317,0,0,0,0,0,0,-3.2141,-3.2099,-3.206,-3.2138,-3.2133,-3.21,-3.2147,-3.2098,-3.2109,-3.2098,-3.2035,-3.2031,-3.21,-3.2088,-3.2033,-3.216,-3.2083,-3.2095,-3.2166,-3.2188,-3.2207,-3.2207,-3.1933,0,0,0,0,0,-3.2177,-3.2207,-3.2169,-3.2241,-3.2241,-3.2195,-3.2207,-3.2168,-3.2161,-3.2159,-3.2137,-3.2133,-3.2155,-3.2171,-3.219,-3.2279,-3.2272,-3.2324,-3.2342,-3.2358,-3.2368,-3.2413,-3.2435,-3.2198,-3.2198,-3.2198,0,0,-3.2252,-3.2233,-3.2255,-3.2265,-3.2257,-3.229,-3.2194,-3.2233,-3.2256,-3.2165,-3.2219,-3.2204,-3.2195,-3.2269,-3.2301,-3.2261,-3.2432,-3.237,-3.2383,-3.2385,-3.2426,-3.2448,-3.2468,-3.2205,-3.2204,-3.2203,0,0,-3.2404,-3.2393,-3.2451,-3.2445,-3.2434,-3.2402,-3.2416,-3.2391,-3.2376,-3.243,-3.2362,-3.2389,-3.2429,-3.2425,-3.2429,-3.2579,-3.2526,-3.2587,-3.2683,-3.2727,-3.2746,-3.2762,-3.2815,-3.2834,-3.2598,-3.2598,-3.2599,0,-3.2499,-3.2544,-3.2488,-3.253,-3.2536,-3.2455,-3.2514,-3.251,-3.2506,-3.2512,-3.2468,-3.2515,-3.2504,-3.2575,-3.2612,-3.2618,-3.2632,-3.2588,-3.2748,-3.2764,-3.2778,-3.2827,-3.2847,-3.2606,-3.2605,-3.2604,-3.2603,0,-3.266,-3.2693,-3.2742,-3.2738,-3.2749,-3.28,-3.2752,-3.277,-3.2731,-3.2704,-3.2759,-3.2743,-3.2755,-3.277,-3.2732,-3.2836,-3.2812,-3.2759,-3.2679,-3.2809,-3.2854,-3.2872,-3.2616,-3.2613,-3.2611,-3.2609,0,0,-3.2889,-3.2853,-3.2871,-3.2868,-3.2849,-3.2873,-3.292,-3.2932,-3.2948,-3.2949,-3.2986,-3.3021,-3.2972,-3.2976,-3.2937,-3.2976,-3.3095,-3.2918,-3.2917,-3.295,-3.3207,-3.3245,-3.3268,-3.306,-3.3063,-3.3066,-3.3207,0,-3.3033,-3.311,-3.306,-3.3145,-3.3173,-3.3097,-3.3137,-3.313,-3.3107,-3.3128,-3.3102,-3.3128,-3.3061,-3.3063,-3.3098,-3.3073,-3.3145,-3.3062,-3.3093,-3.3095,-3.3096,-3.3292,-3.3333,-3.3467,-3.3224,-3.3227,-3.3229,0,-3.3212,-3.3218,-3.3305,-3.3279,-3.3289,-3.3327,-3.3332,-3.3354,-3.3345,-3.3325,-3.3329,-3.328,-3.3324,-3.3247,-3.3307,-3.3251,-3.3261,-3.3251,-3.3255,-3.3255,-3.3169,-3.3296,-3.3508,-3.3528,-3.3257,-3.3255,-3.3253,0,-3.3368,-3.3398,-3.3453,-3.3453,-3.3425,-3.3453,-3.3442,-3.3428,-3.3438,-3.3444,-3.345,-3.3461,-3.3468,-3.3478,-3.3433,-3.3382,-3.3499,-3.3418,-3.3483,-3.3484,-3.351,-3.3509,-3.3726,-3.352,-3.3519,-3.3519,-3.3518,0,-3.3533,-3.359,-3.3523,-3.3557,-3.3617,-3.356,-3.3621,-3.3603,-3.3591,-3.3621,-3.3556,-3.3585,-3.3525,-3.3548,-3.3514,-3.3568,-3.3572,-3.3557,-3.3547,-3.3561,-3.3563,-3.3566,-3.3555,-3.3524,-3.3523,-3.3522,-3.3521,0,-3.3717,-3.3675,-3.373,-3.3698,-3.3691,-3.3737,-3.371,-3.374,-3.3712,-3.375,-3.3756,-3.3712,-3.3736,-3.3693,-3.3712,-3.3688,-3.3763,-3.374,-3.3766,-3.3759,-3.3825,-3.3819,-3.4051,-3.4078,-3.3856,-3.3858,-3.386,0,-3.3825,-3.3866,-3.3838,-3.3852,-3.3845,-3.3869,-3.3878,-3.3824,-3.3836,-3.3828,-3.3859,-3.3877,-3.3889,-3.393,-3.3901,-3.3915,-3.389,-3.397,-3.3891,-3.3905,-3.3889,-3.3887,-3.389,-3.3986,-3.3989,-3.3991,-3.3993,0,-3.402,-3.3997,-3.4012,-3.402,-3.4032,-3.4036,-3.4036,-3.4051,-3.3994,-3.4011,-3.4033,-3.4042,-3.406,-3.4079,-3.4086,-3.4075,-3.4025,-3.4018,-3.4033,-3.4048,-3.4061,-3.4053,-3.3809,-3.4012,-3.401,-3.4009,-3.4008,-3.4007,-3.4168,-3.42,-3.4185,-3.4204,-3.4197,-3.4198,-3.4224,-3.4199,-3.4216,-3.4226,-3.4193,-3.4223,-3.4212,-3.4215,-3.4211,-3.4234,-3.4198,-3.4221,-3.4226,-3.4232,-3.4242,-3.4059,-3.4235,-3.4234,-3.4234,-3.4233,-3.4233,0,-3.4358,-3.4344,-3.4362,-3.4362,-3.4377,-3.4327,-3.4324,-3.434,-3.4366,-3.436,-3.4372,-3.4398,-3.4415,-3.4387,-3.44,-3.4424,-3.4401,-3.4429,-3.4426,-3.4424,-3.4274,-3.4259,-3.4447,-3.4447,-3.4447,-3.4447,-3.4447,-3.4447,-3.4459,-3.451,-3.4485,-3.4532,-3.4518,-3.4545,-3.4548,-3.4548,-3.4542,-3.4573,-3.4587,-3.4568,-3.4553,-3.4564,-3.4578,-3.4569,-3.4576,-3.4612,-3.4596,-3.4456,-3.4435,-3.4415,-3.44,-3.4615,-3.4615,-3.4743,-3.4744,-3.4745]},{"header":{"parameterUnit":"m.s-1","parameterCategory":1,"la1":30.2991,"la2":30.254,"lo1":-89.0895,"lo2":-89.0444,"dy":0.0017,"dx":0.0017,"nx":28,"ny":28,"refTime":"2023-08-21T09:00:00:Z","depth":0,"parameterNumber":3,"parameterNumberName":"V-component_of_WINDS"},"data":[0,0,0,0,0,0,0,0,0,0,0,0,0,0,0,0,0,0,0,0,0,0,0,0,0,0,0,0,0,0,0,0,0,0,0,0,0,0,0,0,0,0,0,0,0,0,0,0,0,0,0,0,0,0,0,0,0,0,0.5917,0.5917,0,0.5898,0.5898,0.5898,0.5829,0.5827,0.5826,0.5824,0.5806,0.5807,0.5808,0,0,0,0,0,0,0,0,0,0,0,0,0,0.5895,0.5896,0.5917,0.5917,0.5917,0.5898,0.5898,0.5898,0.5829,0.5827,0.5825,0.5823,0.5805,0.5806,0.5808,0,0,0,0,0,0,0,0,0,0,0,0,0,0.5894,0.5896,0.5917,0.588,0.5877,0.5898,0.5898,0.5898,0.5829,0.5827,0.5825,0.5822,0.5805,0.5806,0.5808,0.5864,0,0,0.5812,0.5813,0,0,0,0,0,0,0,0,0.5894,0.5894,0.5886,0.5883,0.5879,0.5863,0.5883,0.5887,0.583,0.5847,0.5824,0.5821,0.5827,0.5826,0.5828,0.5863,0.5862,0.5812,0.5813,0.5814,0.5814,0,0,0,0,0,0,0,0.5894,0.5895,0.591,0.5886,0.5882,0.5865,0.5862,0.5884,0.5851,0.5846,0.5841,0.5839,0.5824,0.5827,0.5827,0.5862,0.5812,0.5814,0.5815,0.5815,0.5944,0.5946,0,0,0,0,0,0,0.5899,0.5895,0.591,0.5909,0.5881,0.5867,0.5864,0.5871,0.585,0.5845,0.5841,0.5836,0.5825,0.5825,0.5826,0.5891,0.5814,0.5815,0.5816,0.5942,0.5945,0.5947,0,0,0,0,0,0,0.5899,0.5901,0.5911,0.5901,0.5901,0.587,0.5878,0.5872,0.5874,0.5847,0.5841,0.585,0.5824,0.5824,0.5855,0.589,0.5816,0.5817,0.5939,0.5942,0.5946,0.6022,0,0,0,0,0,0,0.5899,0.5901,0.5922,0.5902,0.5902,0.594,0.588,0.5873,0.5876,0.5869,0.5853,0.5848,0.5822,0.5854,0.5857,0.589,0.5818,0.5935,0.594,0.5945,0.6016,0.6028,0.6038,0,0,0,0,0,0.5898,0.5944,0.5923,0.5926,0.5927,0.5942,0.5942,0.5911,0.5879,0.59,0.5883,0.5849,0.5886,0.5857,0.586,0.5895,0.5933,0.5939,0.5944,0.6011,0.6025,0.6037,0,0,0,0,0,0,0.5969,0.5941,0.5917,0.5958,0.5953,0.5931,0.5956,0.5927,0.5931,0.5924,0.5885,0.5882,0.5919,0.591,0.5879,0.5949,0.5904,0.591,0.5953,0.5967,0.5977,0.5978,0.582,0,0,0,0,0,0.5989,0.6004,0.5979,0.6017,0.6016,0.5987,0.5992,0.5969,0.5962,0.5959,0.5944,0.594,0.595,0.5958,0.5966,0.6015,0.6011,0.604,0.6051,0.606,0.6066,0.6092,0.6105,0.5966,0.5966,0.5966,0,0,0.6031,0.6018,0.6029,0.6031,0.6024,0.6041,0.5985,0.6005,0.6017,0.5962,0.5991,0.598,0.5973,0.6013,0.603,0.6007,0.6104,0.6067,0.6075,0.6076,0.6099,0.6112,0.6124,0.597,0.5969,0.5969,0,0,0.6116,0.6107,0.6139,0.6134,0.6124,0.6105,0.6113,0.6095,0.6086,0.6114,0.6074,0.6088,0.6107,0.6103,0.6104,0.619,0.6159,0.6194,0.625,0.6276,0.6287,0.6296,0.6327,0.6339,0.62,0.62,0.6201,0,0.6169,0.6192,0.6159,0.6181,0.6184,0.6136,0.6168,0.6164,0.6159,0.6162,0.6136,0.6159,0.615,0.619,0.6211,0.6213,0.6221,0.6195,0.6288,0.6297,0.6306,0.6335,0.6347,0.6205,0.6204,0.6204,0.6203,0,0.6259,0.6276,0.6302,0.6298,0.6304,0.6331,0.6302,0.6312,0.6288,0.6272,0.6302,0.629,0.6296,0.6304,0.6281,0.634,0.6326,0.6295,0.6248,0.6324,0.6351,0.6361,0.6211,0.6209,0.6208,0.6207,0,0,0.6386,0.6364,0.6375,0.6373,0.636,0.6373,0.6399,0.6404,0.6414,0.6412,0.6433,0.6451,0.6422,0.6423,0.6399,0.6422,0.6492,0.6388,0.6387,0.6408,0.6558,0.6581,0.6595,0.6471,0.6473,0.6475,0.6558,0,0.6467,0.651,0.6481,0.6528,0.6544,0.6499,0.6522,0.6517,0.6503,0.6515,0.6499,0.6513,0.6474,0.6474,0.6495,0.6479,0.6521,0.6473,0.6491,0.6492,0.6494,0.6609,0.6633,0.6712,0.6569,0.657,0.6572,0,0.6567,0.657,0.6619,0.6605,0.661,0.6631,0.6634,0.6646,0.664,0.6628,0.6631,0.6602,0.6627,0.6582,0.6616,0.6584,0.659,0.6584,0.6586,0.6586,0.6536,0.6612,0.6737,0.6749,0.6588,0.6586,0.6585,0,0.6655,0.6672,0.6704,0.6703,0.6687,0.6703,0.6697,0.6689,0.6695,0.6698,0.6701,0.6708,0.6711,0.6717,0.6691,0.666,0.6729,0.6682,0.672,0.6721,0.6736,0.6736,0.6864,0.6741,0.6741,0.6741,0.674,0,0.6748,0.678,0.6743,0.6763,0.6798,0.6765,0.68,0.679,0.6783,0.68,0.6763,0.678,0.6745,0.6758,0.6738,0.677,0.6772,0.6764,0.6758,0.6767,0.6768,0.677,0.6764,0.6744,0.6743,0.6742,0.6742,0,0.6852,0.6829,0.686,0.6843,0.684,0.6866,0.6851,0.6869,0.6853,0.6876,0.6879,0.6854,0.6869,0.6844,0.6855,0.6841,0.6886,0.6872,0.6888,0.6884,0.6924,0.6921,0.7058,0.7074,0.6941,0.6943,0.6944,0,0.6913,0.6937,0.6922,0.6931,0.6928,0.6942,0.6948,0.6917,0.6925,0.6921,0.694,0.6951,0.6958,0.6984,0.6967,0.6976,0.6961,0.7009,0.6962,0.6971,0.6962,0.6961,0.6964,0.7018,0.702,0.7021,0.7022,0,0.7024,0.7011,0.7021,0.7027,0.7036,0.7039,0.704,0.7049,0.7017,0.7028,0.7042,0.7048,0.706,0.7072,0.7077,0.7071,0.7042,0.7037,0.7047,0.7056,0.7064,0.7061,0.6914,0.7034,0.7033,0.7032,0.7031,0.7031,0.7108,0.7127,0.712,0.7133,0.713,0.7133,0.7149,0.7135,0.7147,0.7154,0.7136,0.7155,0.715,0.7153,0.7151,0.7166,0.7145,0.7159,0.7162,0.7166,0.7172,0.7063,0.7167,0.7167,0.7166,0.7166,0.7166,0,0.7216,0.721,0.7222,0.7225,0.7235,0.7207,0.7207,0.7218,0.7235,0.7233,0.7241,0.7259,0.727,0.7255,0.7265,0.728,0.7267,0.7283,0.7282,0.7281,0.7191,0.7181,0.7294,0.7294,0.7294,0.7294,0.7294,0.7294,0.7274,0.7305,0.7293,0.7323,0.7317,0.7335,0.7338,0.734,0.7338,0.7359,0.7369,0.7359,0.7352,0.7361,0.7371,0.7366,0.7372,0.7393,0.7384,0.73,0.7287,0.7275,0.7266,0.7395,0.7395,0.7473,0.7474,0.7474]}]]